Change the Weather History Date:

Tuesday, July 30, 2013

  Actual Average Record
Temperature  
Mean Temperature 68 °F -  
Max Temperature 76 °F 73 °F 86 °F (2006)
Min Temperature 59 °F 53 °F 51 °F (1997)
Cooling Degree Days 2    
Growing Degree Days 18 (Base 50)    
Moisture  
Dew Point 57 °F    
Average Humidity 74    
Maximum Humidity 94    
Minimum Humidity 35    
Precipitation  
Precipitation 0.01 in 0.09 in - ()
Sea Level Pressure  
Sea Level Pressure 30.05 in    
Wind  
Wind Speed 13 mph ()    
Max Wind Speed 28 mph    
Max Gust Speed 26 mph    
Visibility 6.3 miles    
Events Rain    
Averages and records for this station are not official NWS values.
T = Trace of Precipitation, MM = Missing Value Source: Averaged Metar Reports

Daily Weather History Graph

Daily Weather History Graph

Search for Another Location

Airport or City:

Trip Planner

Search our weather history database for the weather conditions in past years. The results will help you decide how hot, cold, wet, or windy it might be!

Date:

Astronomy

Jul. 30, 2013 Rise Set
Actual Time 5:29 AM CEST 8:48 PM CEST
Civil Twilight 4:49 AM CEST 9:27 PM CEST
Nautical Twilight 3:57 AM CEST 10:19 PM CEST
Astronomical Twilight 2:48 AM CEST 11:27 PM CEST
Moon No Moon Rise 2:48 PM CEST
Length of Visible Light 16h 37m
Length of Day
15h 19m
Last Quarter, 43% of the Moon is Illuminated
Jul 30
Last Quarter
Aug 6
New
Aug 14
First Quarter
Aug 21
Full
Aug 28
Last Quarter

Hourly Weather History & Observations

Time (CEST) Temp. Dew Point Humidity Pressure Visibility Wind Dir Wind Speed Gust Speed Precip Events Conditions
12:00 AM 64.4 °F 62.6 °F 94% 29.95 in 6.2 mi WSW 15.0 mph - N/A   Mostly Cloudy
12:30 AM 62.6 °F 60.8 °F 94% 29.95 in 6.2 mi West 17.3 mph - N/A   Mostly Cloudy
1:00 AM 62.6 °F 60.8 °F 94% 29.95 in 6.2 mi WSW 15.0 mph - N/A   Mostly Cloudy
1:30 AM 62.6 °F 60.8 °F 94% 29.95 in 6.2 mi WSW 16.1 mph - N/A   Overcast
1:54 AM 62.6 °F 60.8 °F 94% 29.98 in 3.7 mi WNW 11.5 mph - N/A Rain Light Rain
2:00 AM 63 °F 60 °F 88% 29.96 in 5 mi West 13.4 mph - - Rain Light Rain
2:00 AM 62.6 °F 60.8 °F 94% 29.98 in 5.0 mi West 18.4 mph - N/A Rain Light Rain
2:30 AM 60.8 °F 59.0 °F 94% 30.01 in 6.2 mi West 16.1 mph - N/A Rain Light Rain
3:00 AM 60.8 °F 59.0 °F 94% 30.01 in 5.0 mi West 16.1 mph - N/A Rain Light Rain
3:30 AM 60.8 °F 59.0 °F 94% 30.04 in 5.0 mi West 11.5 mph - N/A Rain Light Rain
4:00 AM 60.8 °F 59.0 °F 94% 30.01 in 6.2 mi West 15.0 mph - N/A   Overcast
4:30 AM 60.8 °F 59.0 °F 94% 30.01 in - WSW 16.1 mph - N/A   Clear
5:00 AM 60.8 °F 57.2 °F 88% 30.04 in - WSW 13.8 mph - N/A   Clear
5:30 AM 60.8 °F 57.2 °F 88% 30.04 in 6.2 mi WSW 13.8 mph - N/A Rain Light Rain
6:00 AM 59.0 °F 57.2 °F 94% 30.04 in 6.2 mi West 15.0 mph - N/A Rain Light Rain
6:30 AM 60.8 °F 57.2 °F 88% 30.04 in 6.2 mi WSW 17.3 mph - N/A Rain Light Rain
7:00 AM 60.8 °F 57.2 °F 88% 30.04 in - WSW 15.0 mph - N/A   Clear
7:09 AM 60.8 °F 57.2 °F 88% 30.06 in 6.2 mi WSW 13.8 mph - N/A Rain Light Rain
7:30 AM 60.8 °F 59.0 °F 94% 30.06 in 6.2 mi WSW 12.7 mph - N/A Rain Light Rain
7:53 AM 60.8 °F 59.0 °F 94% 30.06 in - WSW 17.3 mph - N/A   Clear
8:00 AM 61 °F 59 °F 89% 30.06 in 19 mi WSW 13.4 mph - - Rain Light Rain
8:00 AM 60.8 °F 59.0 °F 94% 30.06 in - WSW 16.1 mph - N/A   Clear
8:30 AM 62.6 °F 59.0 °F 88% 30.06 in - WSW 16.1 mph - N/A   Clear
9:00 AM 64.4 °F 60.8 °F 88% 30.06 in 6.2 mi West 15.0 mph - N/A   Partly Cloudy
9:30 AM 66.2 °F 59.0 °F 78% 30.09 in 6.2 mi West 18.4 mph - N/A   Partly Cloudy
10:00 AM 68.0 °F 59.0 °F 73% 30.09 in 6.2 mi West 17.3 mph - N/A   Scattered Clouds
10:30 AM 68.0 °F 59.0 °F 73% 30.09 in 6.2 mi West 12.7 mph - N/A   Mostly Cloudy
11:00 AM 68.0 °F 57.2 °F 68% 30.09 in 6.2 mi WNW 10.4 mph - N/A   Mostly Cloudy
11:30 AM 69.8 °F 57.2 °F 64% 30.09 in 6.2 mi WNW 10.4 mph - N/A   Mostly Cloudy
11:53 AM 68.0 °F 59.0 °F 73% 30.09 in 6.2 mi NW 9.2 mph - N/A Rain Light Rain Showers
12:00 PM 66.2 °F 59.0 °F 78% 30.09 in 6.2 mi NW 8.1 mph - N/A Rain Light Rain Showers
12:06 PM 66.2 °F 57.2 °F 73% 30.09 in 6.2 mi NNW 6.9 mph - N/A   Scattered Clouds
12:30 PM 69.8 °F 59.0 °F 68% 30.09 in 6.2 mi North 4.6 mph - N/A   Scattered Clouds
1:00 PM 69.8 °F 59.0 °F 68% 30.09 in 6.2 mi North 9.2 mph - N/A   Scattered Clouds
1:30 PM 69.8 °F 59.0 °F 68% 30.09 in 6.2 mi NNE 5.8 mph - N/A   Scattered Clouds
2:00 PM 76 °F 53 °F 35% 30.03 in 25 mi West 8.9 mph - -   Partly Cloudy
2:00 PM 75.2 °F 53.6 °F 47% 30.06 in 6.2 mi West 12.7 mph - N/A   Partly Cloudy
2:05 PM 73.4 °F 55.4 °F 53% 30.09 in 6.2 mi West 13.8 mph 26.5 mph N/A   Scattered Clouds
2:08 PM 71.6 °F 55.4 °F 57% 30.09 in 6.2 mi West 27.6 mph - N/A   Scattered Clouds
2:30 PM 69.8 °F 55.4 °F 60% 30.09 in 6.2 mi WSW 19.6 mph - N/A   Partly Cloudy
3:00 PM 71.6 °F 55.4 °F 57% 30.09 in - SW 13.8 mph - N/A   Clear
3:30 PM 75.2 °F 57.2 °F 53% 30.06 in 6.2 mi SW 11.5 mph 23.0 mph N/A   Partly Cloudy
3:49 PM 73.4 °F 55.4 °F 53% 30.06 in 6.2 mi West 9.2 mph - N/A   Scattered Clouds
4:00 PM 73.4 °F 55.4 °F 53% 30.09 in 6.2 mi West 11.5 mph - N/A   Scattered Clouds
4:30 PM 77.0 °F 53.6 °F 44% 30.06 in 6.2 mi WSW 18.4 mph - N/A   Scattered Clouds
5:00 PM 75.2 °F 53.6 °F 47% 30.06 in - West 18.4 mph - N/A   Clear
5:30 PM 75.2 °F 53.6 °F 47% 30.06 in - West 15.0 mph - N/A   Clear
6:00 PM 73.4 °F 51.8 °F 47% 30.06 in - West 13.8 mph - N/A   Clear
6:30 PM 71.6 °F 51.8 °F 50% 30.06 in - WNW 12.7 mph - N/A   Clear
7:00 PM 73.4 °F 53.6 °F 50% 30.06 in - WSW 13.8 mph - N/A   Clear
7:30 PM 69.8 °F 51.8 °F 53% 30.06 in - WSW 9.2 mph - N/A   Clear
8:00 PM 69 °F 53 °F 47% 30.05 in 47 mi WSW 8.9 mph - -   Scattered Clouds
8:00 PM 69.8 °F 53.6 °F 56% 30.09 in - WSW 8.1 mph - N/A   Clear
8:30 PM 68.0 °F 53.6 °F 60% 30.09 in - WSW 9.2 mph - N/A   Clear
9:00 PM 64.4 °F 53.6 °F 68% 30.09 in - West 6.9 mph - N/A   Clear
9:30 PM 62.6 °F 53.6 °F 72% 30.09 in - WSW 10.4 mph - N/A   Clear
10:00 PM 60.8 °F 55.4 °F 82% 30.09 in - SW 9.2 mph - N/A   Clear
10:30 PM 60.8 °F 55.4 °F 82% 30.09 in - SW 6.9 mph - N/A   Clear
11:00 PM 60.8 °F 57.2 °F 88% 30.09 in - SW 8.1 mph - N/A   Clear
11:30 PM 62.6 °F 57.2 °F 82% 30.09 in - SW 6.9 mph - N/A   Clear